TimeCST,TemperatureF,Dew PointF,Humidity,Sea Level PressureIn,VisibilityMPH,Wind Direction,Wind SpeedMPH,Gust SpeedMPH,PrecipitationIn,Events,Conditions,WindDirDegrees,DateUTC
12:15 AM,51.8,37.4,58,30.30,10.0,NNE,3.5,-,N/A,,Overcast,20,2013-12-28 06:15:00
12:35 AM,51.8,37.4,58,30.29,10.0,NNE,5.8,-,0.01,,Overcast,20,2013-12-28 06:35:00
12:55 AM,50.0,39.2,66,30.28,10.0,Calm,Calm,-,0.02,,Overcast,0,2013-12-28 06:55:00
1:15 AM,50.0,39.2,66,30.28,10.0,NNE,3.5,-,N/A,,Overcast,20,2013-12-28 07:15:00
1:35 AM,50.0,39.2,66,30.26,10.0,NNE,5.8,-,N/A,,Overcast,20,2013-12-28 07:35:00
1:55 AM,50.0,39.2,66,30.25,10.0,NNE,6.9,-,N/A,,Overcast,30,2013-12-28 07:55:00
2:15 AM,50.0,39.2,66,30.23,10.0,NNE,5.8,-,N/A,,Overcast,20,2013-12-28 08:15:00
2:35 AM,50.0,39.2,66,30.23,10.0,NNE,6.9,-,N/A,,Overcast,20,2013-12-28 08:35:00
2:55 AM,48.2,39.2,71,30.24,10.0,Calm,Calm,-,0.01,,Overcast,0,2013-12-28 08:55:00
3:15 AM,48.2,39.2,71,30.24,10.0,NNE,5.8,-,0.02,,Overcast,20,2013-12-28 09:15:00
3:35 AM,48.2,41.0,76,30.23,10.0,North,6.9,-,0.03,,Overcast,10,2013-12-28 09:35:00
3:55 AM,46.4,39.2,76,30.22,10.0,NNE,6.9,-,0.07,,Overcast,20,2013-12-28 09:55:00
4:15 AM,46.4,39.2,76,30.22,9.0,NNE,3.5,-,0.02,,Overcast,20,2013-12-28 10:15:00
4:35 AM,46.4,39.2,76,30.22,8.0,North,3.5,-,0.06,,Overcast,10,2013-12-28 10:35:00
4:55 AM,46.4,39.2,76,30.21,7.0,NNE,8.1,-,0.11,,Overcast,30,2013-12-28 10:55:00
5:15 AM,46.4,41.0,81,30.19,7.0,NNE,6.9,-,0.06,,Overcast,30,2013-12-28 11:15:00
5:35 AM,46.4,41.0,81,30.17,8.0,NNE,5.8,-,0.11,,Overcast,30,2013-12-28 11:35:00
5:55 AM,46.4,41.0,81,30.16,9.0,NNE,8.1,-,0.15,,Overcast,30,2013-12-28 11:55:00
6:15 AM,46.4,41.0,81,30.17,10.0,North,4.6,-,0.02,,Overcast,10,2013-12-28 12:15:00
6:35 AM,46.4,41.0,81,30.17,9.0,NNE,4.6,-,0.04,,Overcast,20,2013-12-28 12:35:00
6:55 AM,46.4,42.8,87,30.19,4.0,North,5.8,-,0.08,,Overcast,360,2013-12-28 12:55:00
7:15 AM,46.4,42.8,87,30.18,5.0,NNE,6.9,-,0.08,,Overcast,30,2013-12-28 13:15:00
7:35 AM,46.4,42.8,87,30.19,5.0,NNE,4.6,-,0.16,,Overcast,20,2013-12-28 13:35:00
7:55 AM,46.4,42.8,87,30.19,4.0,North,8.1,-,0.22,,Overcast,360,2013-12-28 13:55:00
8:15 AM,46.4,42.8,87,30.19,5.0,North,6.9,16.1,0.03,,Overcast,360,2013-12-28 14:15:00
8:35 AM,46.4,42.8,87,30.19,4.0,North,6.9,-,0.10,,Overcast,360,2013-12-28 14:35:00
8:55 AM,46.4,42.8,87,30.18,4.0,North,8.1,-,0.15,,Overcast,10,2013-12-28 14:55:00
9:15 AM,46.4,42.8,87,30.19,6.0,NNE,6.9,-,0.05,,Overcast,20,2013-12-28 15:15:00
9:35 AM,46.4,42.8,87,30.17,4.0,NNE,9.2,-,0.11,,Overcast,20,2013-12-28 15:35:00
9:55 AM,46.4,42.8,87,30.16,5.0,North,6.9,-,0.15,,Overcast,10,2013-12-28 15:55:00
10:15 AM,46.4,42.8,87,30.17,4.0,North,6.9,-,0.05,,Overcast,10,2013-12-28 16:15:00
10:35 AM,48.2,42.8,82,30.18,5.0,North,4.6,-,0.09,,Overcast,10,2013-12-28 16:35:00
10:55 AM,48.2,42.8,82,30.15,4.0,North,5.8,-,0.17,,Overcast,10,2013-12-28 16:55:00
11:15 AM,48.2,44.6,87,30.12,5.0,NNE,8.1,-,0.04,,Overcast,20,2013-12-28 17:15:00
11:35 AM,48.2,44.6,87,30.10,6.0,NNE,10.4,-,0.06,,Overcast,30,2013-12-28 17:35:00
11:55 AM,48.2,44.6,87,30.09,5.0,NNE,6.9,-,0.08,,Overcast,30,2013-12-28 17:55:00
12:15 PM,48.2,44.6,87,30.07,4.0,NNE,8.1,-,0.04,,Overcast,30,2013-12-28 18:15:00
12:35 PM,48.2,44.6,87,30.04,9.0,NNE,5.8,-,0.05,,Overcast,30,2013-12-28 18:35:00
12:55 PM,48.2,44.6,87,30.04,10.0,NNE,6.9,-,0.05,,Overcast,30,2013-12-28 18:55:00
1:15 PM,50.0,44.6,82,30.03,10.0,NNE,8.1,-,N/A,,Overcast,30,2013-12-28 19:15:00
1:35 PM,50.0,46.4,87,30.03,10.0,NNE,6.9,-,N/A,,Overcast,20,2013-12-28 19:35:00
1:55 PM,50.0,46.4,87,30.02,10.0,North,4.6,-,0.01,,Overcast,360,2013-12-28 19:55:00
2:15 PM,50.0,44.6,82,30.01,10.0,NNE,5.8,-,N/A,,Overcast,20,2013-12-28 20:15:00
2:35 PM,50.0,44.6,82,30.02,10.0,North,4.6,-,N/A,,Overcast,360,2013-12-28 20:35:00
2:55 PM,50.0,44.6,82,30.04,5.0,NW,10.4,-,0.01,,Overcast,320,2013-12-28 20:55:00
3:15 PM,48.2,44.6,87,30.01,4.0,North,9.2,-,0.02,,Overcast,360,2013-12-28 21:15:00
3:35 PM,48.2,44.6,87,30.00,9.0,North,4.6,-,0.05,,Overcast,350,2013-12-28 21:35:00
3:55 PM,48.2,44.6,87,29.98,10.0,North,6.9,-,0.06,,Overcast,350,2013-12-28 21:55:00
4:15 PM,50.0,44.6,82,30.01,10.0,NNW,5.8,-,0.02,,Overcast,330,2013-12-28 22:15:00
4:35 PM,50.0,44.6,82,30.00,10.0,Calm,Calm,-,0.02,,Overcast,0,2013-12-28 22:35:00
4:55 PM,50.0,44.6,82,30.00,10.0,NE,3.5,-,0.03,,Overcast,50,2013-12-28 22:55:00
5:15 PM,50.0,44.6,82,30.02,10.0,NW,4.6,-,N/A,,Overcast,310,2013-12-28 23:15:00
5:35 PM,50.0,44.6,82,30.01,10.0,North,5.8,-,N/A,,Overcast,360,2013-12-28 23:35:00
5:55 PM,50.0,44.6,82,30.03,10.0,NW,4.6,-,N/A,,Overcast,320,2013-12-28 23:55:00
6:15 PM,50.0,46.4,87,30.04,10.0,NNW,5.8,-,N/A,,Overcast,330,2013-12-29 00:15:00
6:35 PM,50.0,46.4,87,30.01,10.0,North,6.9,-,N/A,,Overcast,350,2013-12-29 00:35:00
6:55 PM,50.0,46.4,87,29.99,10.0,NNE,8.1,-,N/A,,Overcast,30,2013-12-29 00:55:00
7:15 PM,50.0,46.4,87,30.01,10.0,NNW,5.8,-,N/A,,Overcast,330,2013-12-29 01:15:00
7:35 PM,50.0,46.4,87,30.02,10.0,North,5.8,-,N/A,,Overcast,350,2013-12-29 01:35:00
7:55 PM,50.0,46.4,87,30.00,10.0,NNW,6.9,-,N/A,,Overcast,340,2013-12-29 01:55:00
8:15 PM,50.0,46.4,87,30.03,10.0,NNW,6.9,-,N/A,,Overcast,340,2013-12-29 02:15:00
8:35 PM,50.0,46.4,87,30.02,10.0,North,6.9,-,0.01,,Overcast,350,2013-12-29 02:35:00
8:55 PM,50.0,44.6,82,30.02,10.0,North,5.8,-,0.01,,Overcast,350,2013-12-29 02:55:00
9:15 PM,50.0,44.6,82,30.02,10.0,North,3.5,-,N/A,,Overcast,350,2013-12-29 03:15:00
9:35 PM,50.0,46.4,87,30.01,10.0,Calm,Calm,-,0.01,,Overcast,0,2013-12-29 03:35:00
9:55 PM,50.0,46.4,87,30.01,10.0,NNW,5.8,-,0.01,,Overcast,340,2013-12-29 03:55:00
10:15 PM,50.0,44.6,82,29.99,10.0,NNE,3.5,-,0.01,,Overcast,20,2013-12-29 04:15:00
10:35 PM,50.0,46.4,87,30.00,10.0,Calm,Calm,-,0.02,,Overcast,0,2013-12-29 04:35:00
10:55 PM,50.0,46.4,87,30.01,10.0,Calm,Calm,-,0.02,,Overcast,0,2013-12-29 04:55:00
11:15 PM,50.0,46.4,87,30.02,10.0,WNW,5.8,-,N/A,,Overcast,290,2013-12-29 05:15:00
11:35 PM,50.0,44.6,82,29.99,10.0,NNE,3.5,-,N/A,,Overcast,30,2013-12-29 05:35:00
11:55 PM,50.0,44.6,82,30.01,10.0,NW,3.5,-,N/A,,Overcast,310,2013-12-29 05:55:00